Home   Weather   Wood Buffalo   Past weeks

Flag for Canada Past Weather in Wood Buffalo, Alberta, Canada — Yesterday and Last 2 Weeks

Now
37 °F

Overcast.


Feels Like: 30 °F
Forecast: 26 / 47 °F
Wind: 12 mph from Southeast

Location: Fort Mcmurray

Current Time: Apr 26, 2017 at 11:44:15 am

Latest Report: Apr 26, 2017 at 11:00 am


Visibility: 9 mi

Pressure: 29.96 "Hg

Humidity: 56%

Dew Point: 23 °F

Location of Wood BuffaloLocation

Past Weather in Wood Buffalo — Graph

°F

Wood Buffalo Temperature Yesterday

Maximum temperature yesterday: 39 °F (at 12:00 pm)
Minimum temperature yesterday: 30 °F (at 2:00 am)
Average temperature yesterday: 34 °F

High & Low Weather Summary for the Past Weeks

 TemperatureHumidityPressure
High46 °F (Apr 13, 4:00 pm)100% (Apr 14, 7:10 am)30.55 "Hg (Apr 14, 7:10 am)
Low16 °F (Apr 16, 7:00 am)21% (Apr 12, 5:00 pm)29.92 "Hg (Apr 14, 4:00 pm)
Average30 °F72%30.17 "Hg
* Reported Apr 11 10:00 am — Apr 26 10:00 am, Wood Buffalo, Weather by CustomWeather, © 2017

Note: Actual official high and low records may vary slightly from our data, if they occured in-between our weather recording intervals... More about our weather records

Advertising

Wood Buffalo Weather History for the Previous 24 Hours

Scroll right to see more
 ConditionsComfort  
Time TempWeatherWind HumidityBarometerVisibility
10:00 am
Wed, Apr 26
37 °FOvercast.12 mph56%29.96 "Hg9 mi
9:00 am36 °FOvercast.14 mph60%29.97 "Hg9 mi
8:00 am36 °FOvercast.13 mph60%29.97 "Hg9 mi
7:00 am34 °FOvercast.10 mph70%29.97 "Hg9 mi
6:00 am34 °FOvercast.8 mph70%29.98 "Hg9 mi
5:00 am34 °FOvercast.6 mph70%29.98 "Hg9 mi
4:00 am34 °FOvercast.5 mph70%29.99 "Hg9 mi
3:00 am34 °FOvercast.6 mph70%30.01 "Hg9 mi
2:00 am34 °FOvercast.7 mph75%30.02 "Hg9 mi
1:00 am34 °FOvercast.5 mph70%30.03 "Hg9 mi
12:00 am34 °FOvercast.7 mph70%30.04 "Hg9 mi
11:00 pm
Tue, Apr 25
34 °FOvercast.7 mph75%30.06 "Hg9 mi
10:00 pm36 °FOvercast.7 mph70%30.07 "Hg9 mi
9:00 pm36 °FOvercast.9 mph70%30.07 "Hg9 mi
8:00 pm37 °FOvercast.9 mph65%30.07 "Hg9 mi
7:26 pm37 °FOvercast.8 mph65%30.07 "Hg9 mi
7:00 pm39 °FOvercast.9 mph61%30.08 "Hg9 mi
6:00 pm39 °FOvercast.10 mph61%30.08 "Hg9 mi
5:26 pm39 °FOvercast.8 mph61%30.09 "Hg9 mi
5:09 pm39 °FOvercast.12 mph61%30.09 "Hg9 mi
4:00 pm39 °FOvercast.8 mph56%30.10 "Hg9 mi
3:00 pm39 °FOvercast.13 mph52%30.10 "Hg9 mi
2:00 pm39 °FOvercast.9 mph56%30.11 "Hg9 mi
1:00 pm39 °FOvercast.10 mph52%30.11 "Hg9 mi
12:00 pm39 °FOvercast.16 mph52%30.11 "Hg9 mi
11:00 am37 °FOvercast.12 mph60%30.11 "Hg9 mi
Weather by CustomWeather, © 2017

See weather overviewHow to use our weather pages